Location: Unspecified
(43.3830°N, 0.0000°E)
Time: 22:43:23
(UTC+00:00)

Courier 1B - All Passes

Search period start: 17 June 2019 00:00
Search period end: 27 June 2019 00:00
Orbit: 963 x 1209 km, 28.3° (Epoch: 17 June)

Date Brightness Start Highest point End Pass type
(mag) Time Alt. Az. Time Alt. Az. Time Alt. Az.
17 Jun - 01:47:54 10° SW 01:50:50 12° SSW 01:53:44 10° S night (unlit)
17 Jun - 19:14:06 10° S 19:17:45 14° SSE 19:21:27 10° SE daylight
17 Jun - 21:04:56 10° SW 21:10:48 24° S 21:16:48 10° ESE visible
17 Jun - 22:58:03 10° WSW 23:04:06 25° S 23:10:10 10° SE visible
18 Jun - 00:52:57 10° SW 00:57:15 16° SSW 01:01:31 10° SSE night (unlit)
18 Jun - 18:22:43 10° SSE 18:24:13 11° SSE 18:25:42 10° SE daylight
18 Jun - 20:11:39 10° SW 20:17:09 22° SSE 20:22:47 10° ESE visible
18 Jun - 22:04:18 10° SW 22:10:24 26° S 22:16:35 10° SE visible
18 Jun - 23:58:32 10° WSW 00:03:38 19° SSW 00:08:42 10° SSE visible
19 Jun - 19:18:36 10° SSW 19:23:32 19° SSE 19:28:37 10° ESE daylight
19 Jun - 21:10:42 10° SW 21:16:43 26° S 21:22:52 10° SE visible
19 Jun - 23:04:26 10° WSW 23:09:58 21° SSW 23:15:33 10° SSE visible
20 Jun - 01:02:23 10° SSW 01:02:59 10° SSW 01:03:36 10° SSW night (unlit)
20 Jun - 18:25:51 10° SSW 18:29:58 16° SSE 18:34:11 10° SE daylight
20 Jun - 20:17:14 10° SW 20:23:02 25° S 20:29:02 10° ESE visible
20 Jun - 22:10:31 10° WSW 22:16:18 23° S 22:22:11 10° SE visible
21 Jun - 00:06:00 10° SW 00:09:25 13° SSW 00:12:50 10° S visible
21 Jun - 17:33:41 10° S 17:36:27 12° SSE 17:39:15 10° SE daylight
21 Jun - 19:23:55 10° SW 19:29:24 23° S 19:35:05 10° ESE daylight
21 Jun - 21:16:46 10° SW 21:22:38 25° S 21:28:39 10° SE visible
21 Jun - 23:11:21 10° SW 23:15:48 16° SSW 23:20:18 10° SSE visible
22 Jun - 18:30:47 10° SSW 18:35:48 20° SSE 18:41:00 10° ESE daylight
22 Jun - 20:23:10 10° SW 20:28:58 25° S 20:34:58 10° SE visible
22 Jun - 22:17:09 10° WSW 22:22:11 19° SSW 22:27:18 10° SSE visible
23 Jun - 17:37:54 10° SSW 17:42:15 17° SSE 17:46:45 10° SE daylight
23 Jun - 19:29:41 10° SW 19:35:19 24° S 19:41:11 10° SE daylight
23 Jun - 21:23:11 10° WSW 21:28:32 21° SSW 21:34:03 10° SSE visible
23 Jun - 23:20:03 10° SW 23:21:35 11° SSW 23:23:08 10° SSW visible
24 Jun - 16:45:24 10° S 16:48:45 14° SSE 16:52:11 10° SE daylight
24 Jun - 18:36:20 10° SW 18:41:43 23° S 18:47:18 10° SE daylight
24 Jun - 20:29:24 10° WSW 20:34:54 23° S 20:40:35 10° SE visible
24 Jun - 22:24:33 10° SW 22:28:00 14° SSW 22:31:30 10° S visible
25 Jun - 15:53:56 10° SSE 15:55:17 11° SSE 15:56:40 10° SE daylight
25 Jun - 17:43:09 10° SW 17:48:08 21° S 17:53:19 10° ESE daylight
25 Jun - 19:35:47 10° SW 19:41:16 24° S 19:46:59 10° SE daylight
25 Jun - 21:30:07 10° SW 21:34:24 16° SSW 21:38:48 10° SSE visible
26 Jun - 16:50:09 10° SSW 16:54:37 18° SSE 16:59:13 10° SE daylight
26 Jun - 18:42:16 10° SW 18:47:40 24° S 18:53:17 10° SE daylight
26 Jun - 20:36:02 10° SW 20:40:48 19° SSW 20:45:42 10° SSE visible
